TimeCST,TemperatureF,Dew PointF,Humidity,Sea Level PressureIn,VisibilityMPH,Wind Direction,Wind SpeedMPH,Gust SpeedMPH,PrecipitationIn,Events,Conditions,WindDirDegrees,DateUTC
12:00 AM,77,74,87,29.94,12,ESE,3.5,,,,Scattered Clouds,120,2012-12-20 06:00:00
3:00 AM,76,73,89,29.91,12,Calm,Calm,,,,Mostly Cloudy,,2012-12-20 09:00:00
5:00 AM,75.2,73.4,94,29.92,6.2,Calm,Calm,-,N/A,,Partly Cloudy,0,2012-12-20 11:00:00
6:00 AM,75,73,90,29.93,12,ESE,4.6,,,,Mostly Cloudy,110,2012-12-20 12:00:00
7:00 AM,77.0,71.6,83,29.95,6.2,East,4.6,-,N/A,,Partly Cloudy,100,2012-12-20 13:00:00
8:00 AM,80.6,73.4,79,29.95,6.2,ESE,4.6,-,N/A,,Partly Cloudy,120,2012-12-20 14:00:00
9:00 AM,79,75,83,29.97,11,ESE,6.9,,,Rain,Light Rain Showers,110,2012-12-20 15:00:00
9:00 AM,78.8,75.2,89,29.97,6.2,ESE,6.9,-,N/A,Rain,Light Rain Showers,110,2012-12-20 15:00:00
10:00 AM,84.2,73.4,70,29.97,6.2,ESE,6.9,-,N/A,,Scattered Clouds,120,2012-12-20 16:00:00
11:00 AM,82.4,73.4,74,29.97,6.2,East,9.2,-,N/A,,Mostly Cloudy,100,2012-12-20 17:00:00
12:00 PM,84,73,62,29.96,12,East,6.9,,,,Partly Cloudy,90,2012-12-20 18:00:00
12:00 PM,84.2,73.4,70,29.95,6.2,East,6.9,-,N/A,,Scattered Clouds,90,2012-12-20 18:00:00
1:00 PM,84.2,73.4,70,29.93,6.2,East,8.1,-,N/A,,Scattered Clouds,80,2012-12-20 19:00:00
2:00 PM,84.2,71.6,66,29.92,6.2,East,9.2,-,N/A,,Scattered Clouds,80,2012-12-20 20:00:00
3:00 PM,84,72,60,29.92,12,ENE,9.2,,,,Scattered Clouds,70,2012-12-20 21:00:00
3:00 PM,84.2,71.6,66,29.91,6.2,ENE,9.2,-,N/A,,Partly Cloudy,70,2012-12-20 21:00:00
4:00 PM,82.4,71.6,70,29.93,6.2,ENE,8.1,-,N/A,,Partly Cloudy,60,2012-12-20 22:00:00
5:00 PM,82.4,73.4,74,29.94,6.2,East,4.6,-,N/A,,Partly Cloudy,80,2012-12-20 23:00:00
6:00 PM,80,73,74,29.97,12,ENE,3.5,,,,Scattered Clouds,60,2012-12-21 00:00:00
6:00 PM,80.6,73.4,79,29.96,6.2,ENE,3.5,-,N/A,,Partly Cloudy,60,2012-12-21 00:00:00
7:00 PM,78.8,73.4,83,30.01,6.2,NE,4.6,-,N/A,,Partly Cloudy,50,2012-12-21 01:00:00
9:00 PM,80,74,76,30.04,12,ENE,4.6,,,,Scattered Clouds,60,2012-12-21 03:00:00
9:00 PM,78.8,73.4,83,30.03,6.2,ENE,4.6,-,N/A,,Partly Cloudy,60,2012-12-21 03:00:00
10:00 PM,78.8,73.4,83,30.04,6.2,East,3.5,-,N/A,,Partly Cloudy,80,2012-12-21 04:00:00
11:00 PM,75.2,73.4,94,30.04,6.2,Calm,Calm,-,N/A,,Partly Cloudy,0,2012-12-21 05:00:00